EA3BAX-1 Weather Reports


time (UTC)temp
F
wind
direction
speed
knots
gust
knots
rain 1hr
in
rain 24hr
in
rain mn
in
humidity
%
barometer
mb
20260506174200 66 225 4.3 8.7 0.00 0.00 0.00 80 1007.8
20260506173200 66 225 6.1 6.1 0.00 0.00 0.00 77 1007.8
20260506172200 67 225 4.3 7.0 0.00 0.00 0.00 78 1007.8
20260506171201 66 225 6.1 7.0 0.00 0.00 0.00 78 1007.8
20260506170201 66 180 3.5 7.0 0.00 0.00 0.00 80 1007.8
20260506165201 66 180 4.3 4.3 0.00 0.00 0.00 78 1007.8
20260506164159 67 180 4.3 4.3 0.00 0.00 0.00 76 1007.8
20260506163159 68 180 4.3 4.3 0.00 0.00 0.00 75 1007.8
20260506162159 67 180 4.3 4.3 0.00 0.00 0.00 76 1007.8
20260506161201 67 180 4.3 7.0 0.00 0.00 0.00 75 1007.8
20260506135159 68 180 4.3 8.7 0.00 0.00 0.00 72 1007.8
20260506134200 69 180 4.3 7.8 0.00 0.00 0.00 69 1007.8
20260506133200 68 180 6.1 6.1 0.00 0.00 0.00 70 1008.8
20260506132200 67 225 9.6 9.6 0.00 0.00 0.00 71 1007.8
20260506131218 68 225 4.3 11.3 0.00 0.00 0.00 71 1007.8
20260506130158 68 225 8.7 8.7 0.00 0.00 0.00 71 1008.8
20260506125159 67 225 3.5 7.0 0.00 0.00 0.00 70 1008.8
20260506124159 68 180 6.1 7.0 0.00 0.00 0.00 70 1008.8
20260506123220 68 225 2.6 6.1 0.00 0.00 0.00 69 1008.8
20260506122200 68 180 6.1 7.8 0.00 0.00 0.00 70 1008.8
20260506101159 65 180 5.2 8.7 0.00 0.00 0.00 73 1008.8
20260506100158 65 90 2.6 8.7 0.00 0.00 0.00 74 1008.8
20260506095158 64 180 6.1 7.0 0.00 0.00 0.00 76 1008.8
20260506094158 63 225 2.6 9.6 0.00 0.00 0.00 77 1008.8
20260506093219 63 180 6.1 7.8 0.00 0.00 0.00 77 1008.8
20260506092158 63 180 7.0 10.4 0.00 0.00 0.00 77 1008.8
20260506091157 63 180 4.3 7.0 0.00 0.00 0.00 80 1008.8
20260506090200 63 180 0.0 0.0 0.00 0.00 0.00 81 1008.8
20260505212137 60 0 2.6 6.1 0.00 0.00 0.00 82 1007.8
20260505211117 59 0 3.5 4.3 0.00 0.00 0.00 81 1007.8
20260505210118 61 0 1.7 3.5 0.00 0.00 0.00 77 1007.8
20260505205118 62 0 3.5 4.3 0.00 0.00 0.00 75 1006.8
20260505204117 62 0 4.3 6.1 0.00 0.00 0.00 75 1006.8
20260505203116 61 0 0.0 0.0 0.00 0.00 0.00 76 1006.8